Location: ??????????
(54.4938°N, 39.3446°E)
Time: 06:04:44
(UTC+00:00)

Daily predictions for brighter satellites

Satellite Brightness Start Highest point End
(mag) Time Altitude Azimuth Time Altitude Azimuth Time Altitude Azimuth
NOSS 2-1 (E) 4.0 17:13:32 10° WNW 17:16:39 41° SW 17:20:28 10° SSE
Cosmos 1125 Rocket 3.5 17:12:10 10° SSW 17:17:20 65° ESE 17:22:35 10° NNE
Cosmos 405 Rocket 3.9 17:15:43 10° NNE 17:17:46 17° ENE 17:19:48 10° ESE
NOSS 0 Rocket 4.2 17:12:22 10° SW 17:18:37 78° NW 17:24:54 10° NE
Cosmos 2341 Rocket 4.3 17:13:44 10° SSW 17:20:02 80° WNW 17:26:26 10° N
Cosmos 2292 Rocket 3.6 17:16:19 10° N 17:20:51 56° ENE 17:24:26 10° SSE
ATLAS 3B R/B 4.1 17:13:23 10° WNW 17:20:52 44° N 17:28:16 10° ENE
CZ-4B R/B 4.3 17:18:48 10° ESE 17:21:12 18° ENE 17:23:34 10° NNE
COSMOS 2428 3.7 17:15:46 10° SW 17:21:22 54° NW 17:27:00 10° NNE
ERS-1 Rocket 3.0 17:16:56 10° SSE 17:21:56 84° ENE 17:26:59 10° NNW
NOSS 2-1 (C) 4.4 17:19:34 10° WNW 17:22:35 34° SW 17:26:19 10° SSE
Cosmos 2366 rocket 4.2 17:18:41 10° SSW 17:24:50 78° WNW 17:31:01 10° N
Cosmos 1674 Rocket 3.5 17:20:38 10° N 17:25:00 80° E 17:29:21 10° SSE
Cosmos 1727 Rocket 4.1 17:20:21 10° N 17:26:45 84° ENE 17:33:04 10° SSE
IRS-1A Rocket 4.4 17:27:34 10° SSE 17:33:12 75° ENE 17:38:59 10° NNW
MetOp-B 4.2 17:28:31 10° SSE 17:33:54 87° WSW 17:39:18 10° NNW
Cosmos 44 3.9 17:29:34 10° S 17:34:14 38° ESE 17:39:09 10° NE
Okean-O 2.9 17:30:25 10° SE 17:34:40 52° ENE 17:38:56 10° N
SL-16 R/B 2.6 17:31:36 10° S 17:36:50 40° ESE 17:42:07 10° NE
Intercosmos 24 Rocket 4.5 17:32:10 10° S 17:36:58 84° ESE 17:40:42 10° NNE
Cosmos 1378 Rocket 4.2 17:32:48 10° NNW 17:37:08 58° W 17:41:24 10° S
Cosmos 1908 Rocket 4.0 17:34:00 10° SSE 17:38:02 40° E 17:42:05 10° NNE
CZ-4B R/B 4.3 17:35:44 10° SE 17:39:58 34° ENE 17:44:14 10° N
NOSS 3-1 (C) 4.0 17:33:36 10° NW 17:40:14 88° SW 17:48:23 11° SE
Ariane Rocket 4.0 17:37:05 10° ESE 17:41:28 32° ENE 17:45:55 10° N
CZ-2C R/B 4.0 17:41:05 11° E 17:42:50 16° ENE 17:44:43 10° NNE
Okean O Rocket 1.7 17:39:00 10° SSE 17:43:17 64° ENE 17:47:34 10° N
NOSS 3-4 (A) 3.4 17:38:55 10° SW 17:44:19 78° NW 17:50:29 10° NE
NOSS 3-4 (C) 3.4 17:39:25 10° SW 17:44:51 79° NW 17:51:03 10° NE
Cosmos 1269 Rocket 4.5 17:39:52 10° NNW 17:45:00 49° NE 17:49:38 13° SE
MOS 1-B 4.4 17:41:02 10° SSE 17:46:47 73° ENE 17:52:35 10° NNW
Cosmos 2084 Rocket 3.9 17:42:44 10° WSW 17:46:47 63° NNW 17:50:55 10° NE
ATLAS 5 CENTAUR R/B 2.5 17:45:00 10° NW 17:48:22 34° NNE 17:52:26 10° E
Cosmos 1140 Rocket 3.8 17:43:27 10° NNW 17:48:31 54° ENE 17:52:57 13° SE
Spot 2 Rocket 3.5 17:43:44 10° SSE 17:48:44 74° ENE 17:53:46 10° NNW
Cosmos 1656 Rocket 4.5 17:44:06 10° NW 17:49:20 47° WSW 17:54:35 10° S
CZ-4 R/B 2.9 17:47:30 10° SSW 17:50:52 32° W 17:54:13 10° NNW
Cosmos 1025 Rocket 3.4 17:49:51 10° NNW 17:54:05 64° W 17:58:18 10° S
Cosmos 2123 Rocket 4.0 17:49:10 10° N 17:55:29 79° ENE 18:01:49 10° SSE
USA 245 4.4 17:52:19 12° SE 17:56:45 55° ENE 18:02:18 10° N
Meteor 2-8 Rocket 4.4 17:50:52 10° S 17:56:55 80° E 18:03:00 10° NNE
Helios 1A Rocket 3.1 17:54:58 10° N 17:58:08 54° WNW 18:01:16 10° SSW
Cosmos 2239 Rocket 4.5 17:53:03 10° S 17:59:15 84° E 18:05:33 10° NNE
Terra 2.5 17:55:29 10° S 18:00:04 54° W 18:04:42 10° NNW
Cosmos 1821 Rocket 4.5 17:54:10 10° SSW 18:00:26 67° WNW 18:06:50 10° N
Cosmos 1733 Rocket 4.2 17:57:15 10° SSW 18:01:28 46° WNW 18:05:45 10° N
Cosmos 2237 Rocket 3.1 17:59:15 10° SW 18:04:50 55° NW 18:10:28 10° NNE
Cosmos 407 Rocket 4.2 18:00:06 10° NNW 18:04:57 40° NE 18:08:45 15° ESE
COSMOS 2455 3.1 18:04:15 10° NW 18:10:14 63° NE 18:15:03 16° ESE
Cosmos 1174 3.1 18:07:33 10° NW 18:10:54 88° NE 18:12:41 23° SE
Cosmos 2150 Rocket 4.0 18:06:13 10° SSW 18:11:18 64° ESE 18:16:30 10° NNE
Cosmos 1862 3.8 18:09:21 10° N 18:12:46 38° ENE 18:14:41 21° SE
Cosmos 371 Rocket 4.2 18:08:31 10° NNW 18:13:02 37° NE 18:16:22 16° ESE
Cosmos 2058 3.5 18:10:58 10° N 18:14:40 38° ENE 18:16:50 21° SE
Cosmos 1300 Rocket 3.6 18:11:26 10° S 18:15:37 58° E 18:19:52 10° NNE
Cosmos 1346 Rocket 4.3 18:13:07 10° NNW 18:16:19 30° W 18:19:30 10° SSW
USA 59 Rocket 2.5 18:16:35 10° WSW 18:17:32 11° WSW 18:18:33 10° SW
Cosmos 1605 Rocket 4.2 18:18:22 13° SSE 18:23:34 50° E 18:29:29 10° NNE
ARIANE 6 FM1 Upper Stage 4.2 18:20:17 10° NW 18:23:54 30° NNE 18:27:27 10° ENE
Cosmos 2297 4.2 18:18:23 10° NW 18:24:02 59° WSW 18:28:49 14° S
SJ 16-02 2.5 18:21:17 10° N 18:25:06 30° NE 18:27:33 18° ESE
ASTEX 1 3.7 18:21:09 10° S 18:26:02 66° W 18:30:59 10° N
Cosmos 2369 Rocket 2.9 18:23:07 10° NW 18:28:29 49° WSW 18:33:12 13° S
USA 234 3.3 18:23:44 10° ENE 18:30:09 54° SE 18:36:32 10° SW
SPOT 3 Rocket 3.5 18:27:44 17° SSE 18:31:44 87° ENE 18:36:56 10° NNW
SL-08 R/B 3.7 18:28:34 10° NNE 18:33:27 69° WNW 18:38:19 10° SSW
Cosmos 1869 3.1 18:32:16 10° SSW 18:35:48 78° W 18:39:24 10° N
Cosmos 1315 Rocket 2.7 18:34:16 22° S 18:36:29 56° E 18:40:10 10° NNE
Cosmos 1697 Rocket 4.4 18:32:19 10° NNW 18:36:58 25° NNE 18:41:35 10° E
Cosmos 2285 Rocket 4.0 18:31:34 10° SSW 18:37:56 88° ESE 18:44:19 10° NNE
NOSS 3-1 (A) 3.9 18:33:12 10° NW 18:39:55 84° SW 18:45:57 21° SE
YAOGAN 11 4.2 18:36:06 10° NNE 18:40:23 77° WNW 18:44:42 10° SSW
SeaSat 1 3.8 18:37:30 13° E 18:41:08 30° NE 18:45:24 10° NNW
Lacrosse 5 rocket 0.5 18:41:56 10° WNW 18:45:08 88° NNE 18:46:17 37° ESE
USA 186 3.5 18:43:56 12° SW 18:45:18 18° W 18:47:05 10° NW
Cosmos 1943 3.3 18:42:22 10° S 18:47:51 53° ESE 18:53:22 10° NE
Cosmos 2346 Rocket 4.4 18:41:42 10° N 18:47:54 85° E 18:52:18 21° SSE
Cosmos 405 Rocket 3.4 18:48:05 10° NNW 18:50:49 34° W 18:52:20 20° SSW
Cosmos 921 Rocket 3.0 18:46:50 10° NNW 18:51:16 78° WSW 18:53:31 28° SSE
IRS-1C Rocket 4.2 18:50:49 21° S 18:54:22 78° WSW 18:59:42 10° NNW
CZ-4B R/B 3.2 18:52:52 23° SSW 18:54:42 48° W 18:58:00 10° NNW
Cosmos 1975 Rocket 3.3 18:51:51 10° NNW 18:56:16 65° W 18:58:58 22° S
SL-8 R/B 4.1 18:52:30 10° WSW 18:56:53 39° S 18:58:20 31° SE
Cosmos 1980 Rocket 4.2 18:52:53 10° NNW 18:57:15 22° NNE 19:01:34 10° ENE
Helios 1B rocket 3.3 19:01:12 25° E 19:02:02 28° ENE 19:05:06 10° N
Cosmos 1356 Rocket 3.2 19:01:12 28° S 19:03:17 79° ESE 19:07:18 10° NNE
Cosmos 2151 Rocket 4.5 19:02:38 28° ESE 19:03:30 31° E 19:07:21 10° NNE
Okean 1 Rocket 4.4 19:03:47 22° E 19:04:18 23° E 19:07:43 10° NE
Cosmos 1190 Rocket 4.4 18:59:17 10° NNW 19:04:30 53° NE 19:07:08 27° ESE
Cosmos 304 Rocket 3.7 19:02:02 10° NNW 19:06:49 88° WSW 19:08:57 33° SSE
BREEZE-M DEB (TANK) 4.3 19:05:13 10° WSW 19:06:41 19° SSW 19:06:41 19° SSW
Helios 1A 3.9 19:07:02 10° NE 19:10:30 28° E 19:10:37 28° E
Okean 2 Rocket 4.1 19:10:05 27° ESE 19:10:48 29° E 19:14:38 10° NNE
ATLAS 3B R/B 3.7 19:05:32 10° NW 19:13:13 50° NNE 19:20:38 10° E
CZ-2C R/B 3.1 19:12:52 32° SW 19:13:31 37° W 19:16:14 10° NNW
Cosmos 2360 4.4 19:09:28 10° NNW 19:15:09 64° NE 19:18:05 29° SE
Cosmos 44 4.0 19:10:06 10° WSW 19:15:14 61° NW 19:20:36 10° NE
Geosat 4.5 19:13:21 10° NNE 19:18:19 63° NW 19:23:15 10° SW
CZ-4B R/B 4.2 19:15:34 20° SSW 19:18:32 43° W 19:23:05 10° NNW
Cosmos 1656 3.7 19:13:31 10° NNW 19:18:59 72° NE 19:21:34 32° SE
Okean O Rocket 3.8 19:16:43 10° SW 19:19:53 20° W 19:23:03 10° NW
Ariane Rocket 3.6 19:17:09 22° SSW 19:20:12 51° W 19:25:07 10° NNW
SL-16 R/B 3.1 19:15:22 10° SW 19:20:53 51° NW 19:26:26 10° NNE
ATLAS 5 CENTAUR R/B 1.5 19:26:44 10° NW 19:30:40 68° SW 19:31:55 45° SSE
Cosmos 332 Rocket 4.4 19:26:41 10° NNW 19:31:23 48° NE 19:33:12 32° ESE
Cosmos 1954 Rocket 4.0 19:29:45 10° NNW 19:35:01 73° ENE 19:36:59 39° SE
Cosmos 1420 Rocket 4.4 19:34:10 38° SE 19:35:20 44° ESE 19:40:20 10° NE
Cosmos 1833 Rocket 4.2 19:38:01 18° E 19:38:01 18° E 19:41:39 10° ENE
Cosmos 676 Rocket 4.2 19:33:16 10° NNW 19:38:32 61° ENE 19:40:34 36° SE
USA 229 DEB 4.3 19:32:22 10° NW 19:39:26 64° NNE 19:45:50 17° ESE
USA 229 4.3 19:32:25 10° NW 19:39:29 63° NNE 19:45:57 16° ESE
Cosmos 1818 3.5 19:35:10 10° NW 19:40:39 78° SW 19:42:40 40° SSE
Cosmos 1725 Rocket 4.4 19:39:35 33° SE 19:41:53 47° E 19:47:52 10° NNE
Cosmos 1153 Rocket 4.5 19:38:14 25° SSW 19:42:08 85° WNW 19:48:29 10° N
Cosmos 1459 Rocket 4.0 19:42:23 34° SSE 19:45:13 66° E 19:51:26 10° NNE
Cosmos 407 Rocket 4.2 19:42:05 10° NW 19:46:54 42° WSW 19:48:51 29° SSW
Sich 1 Rocket 3.8 19:49:08 47° ESE 19:49:39 50° E 19:53:53 10° NNE
ALOS 2 3.6 19:48:44 31° E 19:49:53 37° ENE 19:53:56 10° N
ATLAS 2AS CENTAUR R/B 3.7 19:50:46 25° ESE 19:51:01 26° ESE 19:56:25 10° ENE
Spot 4 4.4 19:50:21 36° ESE 19:51:45 47° ENE 19:56:17 10° N
Cosmos 371 Rocket 4.0 19:48:45 10° NW 19:53:20 43° WSW 19:54:49 33° SSW
COSMOS 2455 3.7 19:50:27 10° NW 19:55:58 38° WSW 19:58:10 28° SSW
ARIANE 5 R/B 3.1 19:55:21 41° ESE 19:56:17 49° ENE 20:00:32 10° N
Meteor 2-1 Rocket 4.3 19:55:14 40° SSE 19:57:21 68° E 20:03:03 10° NNE
BREEZE-M DEB (TANK) 4.3 19:54:11 10° W 19:57:38 37° S 19:58:00 36° S
Cosmos 1802 Rocket 4.1 19:56:06 38° SSE 19:58:29 63° E 20:04:39 10° NNE
Cosmos 2056 Rocket 4.0 20:00:21 40° SE 20:01:07 42° ESE 20:06:12 10° NE
Cosmos 2251 Rocket 3.7 19:56:08 10° NNW 20:01:24 63° WSW 20:03:03 42° S
SJ 16-02 1.9 19:59:15 10° NW 20:03:19 43° WSW 20:04:02 39° SW
ARIANE 6 FM1 Upper Stage 2.7 19:59:25 10° NW 20:03:25 70° NNE 20:04:06 56° E
Cosmos 2228 4.2 20:06:04 28° E 20:06:04 28° E 20:09:33 10° NNE
Cosmos 1816 Rocket 4.5 20:00:17 10° NNW 20:06:27 76° W 20:08:57 38° S
Cosmos 1536 Rocket 4.2 20:03:21 10° NNW 20:07:29 46° W 20:08:30 38° SW
Cosmos 1624 Rocket 4.3 20:08:12 43° SE 20:08:45 45° ESE 20:13:41 10° NE
CZ-2C R/B 4.1 20:06:14 19° E 20:08:56 29° ENE 20:13:30 10° N
Cosmos 292 Rocket 4.1 20:07:12 10° NNW 20:11:59 59° ENE 20:13:15 44° ESE
IKONOS-2 4.5 20:07:58 10° NNE 20:12:05 75° WNW 20:12:54 55° SW
Cosmos 2016 Rocket 4.0 20:10:38 40° SSE 20:12:57 68° E 20:19:13 10° NNE
USA 234 3.3 20:06:53 10° ENE 20:13:28 84° NNW 20:20:03 10° WSW
SeaSat 1 2.4 20:17:06 53° S 20:18:12 73° WSW 20:23:07 10° NW
Cosmos 1743 3.1 20:15:48 10° N 20:18:06 46° N 20:18:06 46° N
Cosmos 1626 Rocket 4.4 20:17:23 10° N 20:21:24 37° ENE 20:22:02 35° E
Lacrosse 5 rocket 3.2 20:18:52 10° W 20:19:32 14° W 20:19:32 14° W
Cosmos 2173 Rocket 4.1 20:18:49 32° SSW 20:21:44 72° WNW 20:27:53 10° N
Cosmos 1697 Rocket 2.7 20:16:08 10° NNW 20:21:49 77° NE 20:23:43 43° SE
SAR-Lupe-2 3.8 20:27:23 60° NNE 20:27:23 60° NNE 20:30:16 10° NNW
Cosmos 1603 3.9 20:26:12 23° SW 20:29:50 70° NW 20:35:34 10° NNE
Meteor 2-3 Rocket 4.4 20:24:31 10° NNW 20:29:52 46° W 20:31:47 33° SW
Cosmos 1892 Rocket 3.5 20:27:06 10° NNW 20:31:30 71° W 20:31:59 64° SW
Cosmos 1943 4.4 20:26:42 10° WSW 20:32:04 41° NW 20:37:27 10° NNE
Helios 1B rocket 3.4 20:35:11 30° W 20:35:11 30° W 20:38:10 10° NW
Cosmos 1782 3.2 20:37:18 45° NE 20:37:18 45° NE 20:40:05 10° NNE
Cosmos 2151 3.8 20:36:12 10° N 20:40:09 39° ENE 20:40:34 37° E
Okean 1 Rocket 3.6 20:40:47 42° WSW 20:41:45 51° WNW 20:46:02 10° N
Cosmos 1980 Rocket 2.6 20:36:47 10° NNW 20:42:26 58° NE 20:44:56 32° ESE
Cosmos 1371 Rocket 3.9 20:43:06 55° S 20:44:16 79° ESE 20:49:36 10° NNE
Helios 1A 4.0 20:41:33 10° N 20:45:16 37° WNW 20:46:20 31° W
Tsikada Rocket 4.0 20:39:01 10° NNW 20:45:19 74° W 20:47:21 44° S
Cosmos 968 Rocket 3.5 20:41:12 10° NNW 20:46:25 72° WSW 20:47:23 57° S
ARGOS Delta rocket 4.1 20:44:06 10° NNE 20:48:30 47° E 20:48:48 46° ESE
Okean 2 Rocket 4.0 20:47:17 33° WSW 20:48:36 41° WNW 20:52:52 10° N
CZ-2C R/B 3.5 20:46:31 10° NNE 20:50:57 86° WNW 20:51:25 71° SSW
MetOp-A 4.0 20:50:07 53° SE 20:51:15 75° ENE 20:56:24 10° NNW
Cosmos 1455 Rocket 3.0 20:51:51 64° SW 20:52:22 74° WNW 20:56:50 10° N
Cosmos 2061 Rocket 3.9 20:50:51 47° S 20:52:47 82° E 20:59:02 10° NNE
Cosmos 1741 Rocket 3.9 20:49:25 10° NNW 20:54:46 89° ENE 20:55:57 56° SSE
Meteor 1-27 4.2 20:58:39 47° SSW 21:00:23 82° WNW 21:06:08 10° NNE
Cosmos 1544 Rocket 4.1 21:01:24 45° E 21:01:30 46° E 21:05:43 10° NNE
Cosmos 1452 Rocket 4.2 21:01:25 38° ESE 21:01:47 38° ESE 21:06:36 10° NE
ATLAS 3B R/B 2.9 20:56:47 10° NW 21:04:41 84° SW 21:08:29 33° SE
Cosmos 1758 Rocket 3.3 21:03:02 10° N 21:07:22 85° ENE 21:07:33 81° SE
Cosmos 2360 Rocket 4.4 21:04:01 10° NNW 21:08:32 23° NNE 21:13:01 10° E
ATLAS 5 CENTAUR R/B 3.8 21:09:50 10° W 21:11:03 13° W 21:11:03 13° W
Cosmos 2333 Rocket 3.9 21:08:19 10° NNW 21:13:20 31° NE 21:18:21 10° E
Cosmos 1867 4.0 21:13:28 43° SE 21:13:34 43° ESE 21:18:43 10° NE
Meteor 2-9 4.5 21:08:20 10° NNW 21:13:44 88° ENE 21:14:55 56° SSE
Aureole 3 Rocket 3.7 21:12:40 55° SSW 21:13:57 88° WNW 21:20:53 10° NNE
BREEZE-M DEB (TANK) 3.9 21:05:41 10° WSW 21:14:41 48° S 21:19:27 10° ESE
Cosmos 1833 Rocket 2.6 21:19:39 53° SSW 21:21:02 84° ESE 21:26:42 10° NE
Cosmos 2082 Rocket 3.5 21:21:03 24° ESE 21:21:49 25° ESE 21:26:20 10° NE
Cosmos 2322 Rocket 4.1 21:20:00 10° NNW 21:24:46 27° NE 21:29:32 10° E
ALOS 2 3.6 21:26:08 34° W 21:26:15 34° W 21:30:18 10° NNW
Cosmos 1933 3.7 21:27:11 50° ENE 21:27:11 50° ENE 21:30:32 10° NNE
CZ-2C R/B 3.2 21:21:56 10° NNE 21:27:10 68° ESE 21:28:17 53° SSE
USA 229 DEB 4.1 21:23:19 10° NW 21:30:31 56° SW 21:33:11 40° S
USA 229 4.1 21:23:22 10° NW 21:30:35 57° SW 21:33:18 40° S
Cosmos 1825 Rocket 4.0 21:27:56 10° N 21:32:08 50° ENE 21:32:44 46° ESE
ARIANE 5 R/B 4.0 21:32:43 25° W 21:32:50 25° W 21:36:29 10° NW
PSLV R/B 3.8 21:32:45 10° N 21:36:50 56° WNW 21:37:12 53° W
Cosmos 1602 Rocket 3.3 21:32:38 10° NNW 21:36:58 84° W 21:37:06 81° SW
Cosmos 2219 Rocket 4.4 21:32:49 10° NNW 21:37:18 24° NNE 21:41:47 10° E
Cosmos 1850 Rocket 4.5 21:34:40 10° NW 21:39:33 42° WSW 21:39:54 42° WSW
SL-16 R/B 3.2 21:35:29 10° NNW 21:40:55 44° NE 21:46:04 11° ESE
ATLAS 2AS CENTAUR R/B 2.6 21:38:08 37° SW 21:41:06 83° SE 21:47:57 10° NE
Cosmos 1437 Rocket 3.4 21:42:18 41° ENE 21:42:18 41° ENE 21:45:02 10° NNE
Cosmos 2228 3.8 21:42:18 36° W 21:42:48 38° WNW 21:46:44 10° N
Cosmos 1302 Rocket 4.3 21:42:24 46° SE 21:43:04 49° ESE 21:48:04 10° NE
Cosmos 2056 Rocket 4.5 21:40:33 26° WSW 21:43:12 43° NW 21:48:23 10° NNE
Cosmos 1900 4.2 21:43:40 65° SSW 21:44:21 78° SE 21:49:18 10° NE
Cosmos 1331 Rocket 4.0 21:47:26 52° SW 21:48:43 78° WNW 21:54:01 10° NNE
CZ-2C R/B 2.7 21:47:40 52° SSW 21:48:49 65° WSW 21:54:13 10° NNW
Landsat 5 3.5 21:44:41 10° NNE 21:48:56 68° ESE 21:49:08 67° ESE
SeaSat 1 4.4 21:56:42 15° W 21:56:42 15° W 21:59:08 10° WNW
USA 234 3.4 21:49:53 10° E 21:56:24 73° N 22:02:56 10° WNW
Nadezhda 4 Rocket 3.9 21:50:31 10° NNW 21:56:40 75° W 21:58:32 47° S
ACS3 Solar Sail 2.6 21:53:04 10° NNE 21:58:45 40° E 22:01:09 29° SE
Okean 1 4.1 21:59:16 36° E 21:59:16 36° E 22:02:17 10° NNE
Cosmos 2237 4.2 21:53:40 10° NNW 21:59:27 88° ENE 22:01:43 39° SE
Meteor 1-25 Rocket 4.4 21:55:30 10° NNW 22:01:14 61° W 22:02:36 47° SSW
Timation 1 Rocket 4.3 21:59:51 48° SSW 22:01:41 82° ESE 22:07:44 10° NE
Cosmos 2098 Rocket 3.6 22:00:15 51° S 22:01:45 86° E 22:07:20 10° NNE
Cosmos 1766 4.4 22:00:18 10° N 22:03:09 28° ENE 22:03:17 28° ENE
IDEFIX/ARIANE 42P 4.4 21:59:28 10° NE 22:03:25 21° E 22:05:39 17° ESE
Cosmos 1697 Rocket 4.0 22:00:47 10° NW 22:05:13 24° WSW 22:05:24 24° WSW
Cosmos 1110 Rocket 4.4 22:04:28 39° WSW 22:06:13 58° WNW 22:11:28 10° NNE
Cosmos 1464 Rocket 3.9 22:09:27 45° SSW 22:11:30 78° WNW 22:17:40 10° N
DELTA 2 DEB (DPAF) 3.6 22:09:59 10° NNE 22:13:23 77° NE 22:13:23 77° NE
Cosmos 2195 Rocket 4.4 22:08:04 10° NNW 22:14:25 79° W 22:16:42 42° S
Cosmos 1536 3.7 22:11:26 10° N 22:14:51 37° ENE 22:15:33 33° E
Cosmos 2151 4.2 22:13:14 10° NNW 22:16:37 27° W 22:16:37 27° W
Cosmos 1606 Rocket 3.4 22:18:28 68° S 22:19:02 88° E 22:23:28 10° NNE
USA 281 3.5 22:13:29 11° SE 22:19:43 65° NE 22:26:14 10° NNW
CZ-4C R/B 2.1 22:20:44 45° SE 22:21:11 46° SE 22:26:27 10° NE
PSLV R/B 4.2 22:18:37 10° NNE 22:22:21 49° E 22:22:35 48° ESE
GP-B 3.3 22:21:09 10° N 22:25:31 64° E 22:26:26 50° SE
Meteor 1-5 Rocket 4.4 22:20:29 10° NNW 22:25:44 54° W 22:26:56 45° SW
Okean 1-7 Rocket 3.9 22:21:42 10° NNW 22:25:54 46° W 22:26:05 46° WSW
Cosmos 1980 Rocket 2.9 22:21:07 10° NW 22:26:12 35° WSW 22:26:39 34° WSW
Cosmos 2026 Rocket 4.0 22:20:26 10° NNW 22:26:42 77° W 22:29:09 40° S
Meteor 2-10 4.3 22:21:36 10° NNW 22:26:59 60° W 22:28:25 45° SSW
Cosmos 1076 Rocket 3.4 22:23:44 10° NNW 22:28:03 69° W 22:28:27 64° SW
CZ-4C R/B 3.5 22:30:31 10° N 22:33:13 45° NW 22:33:13 45° NW
Cosmos 2034 Rocket 4.0 22:31:16 40° SSW 22:33:44 80° WNW 22:40:10 10° N
Cosmos 2058 Rocket 3.6 22:34:42 40° SE 22:35:47 51° E 22:40:04 10° NNE
Cosmos 2369 4.0 22:34:22 10° NW 22:39:49 47° WSW 22:40:56 42° SW
COSMOS 2406 3.9 22:38:43 32° SSE 22:40:45 44° ESE 22:46:11 10° NE
Cosmos 1092 Rocket 3.9 22:35:34 10° NNW 22:41:41 71° W 22:44:06 38° SSW
Cosmos 1452 Rocket 4.2 22:41:37 29° WSW 22:43:47 45° NW 22:48:49 10° NNE
Cosmos 1726 Rocket 3.4 22:43:54 58° SW 22:44:34 72° WNW 22:48:47 10° N
Cosmos 2084 Rocket 3.7 22:41:01 10° NW 22:45:12 67° NE 22:49:25 10° ESE
Cosmos 1486 Rocket 3.9 22:43:59 10° NNW 22:49:14 90° E 22:52:00 29° SSE
MSX 4.4 22:47:40 10° NNE 22:53:17 50° E 22:56:16 27° SSE
Cosmos 2360 Rocket 2.5 22:47:53 10° NNW 22:53:35 67° NE 22:59:13 10° SE
ATLAS 3B R/B 3.7 22:48:14 10° WNW 22:54:34 28° WSW 22:55:41 27° SW
Cosmos 1867 4.1 22:54:04 25° WSW 22:57:06 57° NW 23:02:30 10° NE
Cosmos 2333 Rocket 2.1 22:52:32 10° NW 22:58:14 80° WSW 23:02:07 21° SSE
Cosmos 1777 Rocket 3.9 22:53:22 10° NNW 22:58:41 88° WSW 23:01:48 25° SSE
Cosmos 1953 Rocket 4.0 22:55:31 10° NNW 22:59:45 44° W 23:00:19 41° WSW
Resurs 1-4 Rocket 4.2 22:57:07 10° NE 23:00:59 20° E 23:04:49 10° SE
SL-08 ROCKET BODY 4.3 22:58:12 10° NNW 23:04:12 79° W 23:07:23 30° S
Cosmos 2082 Rocket 2.2 23:02:51 36° SW 23:05:20 78° NW 23:11:06 10° NNE
Cosmos 1833 Rocket 4.2 23:01:16 12° W 23:05:36 29° NW 23:10:30 10° NNE
Cosmos 724 4.3 23:03:06 36° SSW 23:05:42 76° SE 23:11:39 10° NE
NPP 4.3 23:01:18 10° NNE 23:06:33 49° E 23:09:33 24° SSE
Cosmos 2084 3.6 23:05:15 38° W 23:06:39 64° NW 23:10:46 10° NE
Cosmos 909 Rocket 4.0 23:03:37 33° SW 23:06:39 86° SE 23:13:11 10° NE
H-2A R/B 4.4 23:05:19 10° NE 23:08:33 16° E 23:11:48 10° SE
BREEZE-M R/B 4.2 23:03:24 10° W 23:09:17 50° SSW 23:15:46 10° SE
Cosmos 2322 Rocket 2.2 23:03:54 10° NNW 23:09:34 86° NE 23:15:14 10° SSE
Meteor 2-9 Rocket 4.2 23:04:24 10° NNW 23:09:47 74° ENE 23:13:35 19° SSE
Cosmos 2278 3.6 23:04:24 10° NW 23:10:07 74° WSW 23:14:17 19° SSE
BREEZE-M DEB (TANK) 3.5 23:12:58 26° SE 23:12:58 26° SE 23:16:03 10° ESE
Cosmos 1271 Rocket 3.8 23:15:08 26° SE 23:16:20 34° E 23:19:31 10° NNE
Cosmos 1437 Rocket 4.4 23:16:08 17° WNW 23:16:39 18° WNW 23:19:06 10° NNW
Cosmos 220 Rocket 4.3 23:17:56 36° SSE 23:19:11 52° ESE 23:23:08 10° NE
Cosmos 1634 Rocket 4.0 23:16:23 32° SSW 23:19:22 67° WNW 23:25:32 10° N
NOSS 3-4 (A) 3.8 23:13:18 10° NW 23:19:44 83° NE 23:27:24 10° SE
NOSS 3-4 (C) 3.8 23:13:51 10° NW 23:20:18 83° NE 23:27:58 10° SE
Cosmos 1470 2.2 23:17:21 10° NNW 23:20:42 89° ENE 23:21:21 56° SSE
Cosmos-2242 3.2 23:20:02 41° SW 23:21:09 56° WNW 23:25:17 10° N
Meteor 2-2 Rocket 4.2 23:19:35 33° SSW 23:22:14 76° WNW 23:27:54 10° NNE
Cosmos 2219 Rocket 2.5 23:16:37 10° NNW 23:22:15 69° NE 23:27:54 10° SE
Cosmos 1607 3.9 23:20:33 31° SSW 23:23:42 79° SE 23:30:00 10° NE
SL-16 R/B 2.4 23:19:40 10° NW 23:25:08 49° WSW 23:27:50 28° S
KORONAS-FOTON 3.3 23:24:41 60° SSW 23:25:12 79° WNW 23:28:34 10° N
Cosmos 1707 2.5 23:26:32 46° WNW 23:26:32 46° WNW 23:29:14 10° N
Cosmos 1992 Rocket 4.5 23:25:21 29° WSW 23:27:49 51° NW 23:32:56 10° NNE
MOZ.5/SAFIR/RUBIN 5/SL-8 3.9 23:24:33 16° SSE 23:28:14 76° ENE 23:32:54 10° NNW
ALOS 4.1 23:25:55 10° NE 23:29:40 25° E 23:33:23 10° SSE
Cosmos 44 Rocket 3.4 23:29:36 32° SW 23:32:03 84° NW 23:37:18 10° NE
ATLAS 2AS CENTAUR R/B 3.5 23:25:57 10° W 23:32:34 47° NNW 23:39:06 10° NE
Meteor 1-11 Rocket 3.9 23:28:39 10° NNW 23:34:36 79° ENE 23:40:24 10° SSE
Cosmos 1766 4.3 23:33:57 10° NW 23:36:04 22° WNW 23:36:04 22° WNW
Cosmos 2221 2.5 23:35:54 30° S 23:37:51 74° E 23:42:00 10° NNE
Envisat 4.1 23:33:58 10° NNE 23:38:44 39° E 23:43:05 12° SSE
USA 234 3.2 23:32:53 10° ESE 23:39:26 81° SSW 23:46:02 10° WNW
Aureole 1 Rocket 3.3 23:35:56 10° NNW 23:39:54 70° ENE 23:44:54 10° SE
Iridium 4 Rocket 3.9 23:36:50 15° SSE 23:40:38 57° E 23:45:45 10° N
DMSP B5D2-2 4.2 23:35:42 10° SSE 23:40:52 77° ENE 23:46:05 10° NNW
ACS3 Solar Sail 2.2 23:35:31 10° N 23:41:16 49° WNW 23:44:43 24° SW
Meteor 1-14 Rocket 4.2 23:35:36 10° NNW 23:41:19 65° W 23:45:03 21° S
DNEPR-1 R/B 4.1 23:37:05 10° NW 23:42:13 81° SW 23:48:29 10° SE
Gbstr 26 Del rocket 4.2 23:44:13 21° SSE 23:44:13 21° SSE 23:45:47 10° SE
IDEFIX/ARIANE 42P 2.5 23:38:14 10° NNE 23:43:26 75° WNW 23:46:20 27° SSW
ADEOS Rocket 3.7 23:38:04 10° NNE 23:45:39 79° ESE 23:52:01 17° S
Cosmos 2279 Rocket 4.1 23:43:05 26° SSW 23:46:43 61° WNW 23:52:56 10° N
Cosmos 990 Rocket 3.9 23:43:35 10° NNW 23:48:41 66° WSW 23:53:43 10° SSE
Cosmos 1536 4.0 23:47:01 10° NW 23:49:55 22° W 23:50:04 22° W
Cosmos 2333 4.2 23:46:02 10° NW 23:51:39 66° WSW 23:57:17 10° SSE
BREEZE-M DEB (TANK) 4.1 23:36:20 10° W 23:53:56 58° SSW 23:58:25 10° ESE
